Date,TemperatureHighF,TemperatureAvgF,TemperatureLowF,DewpointHighF,DewpointAvgF,DewpointLowF,HumidityHigh,HumidityAvg,HumidityLow,PressureMaxIn,PressureMinIn,WindSpeedMaxMPH,WindSpeedAvgMPH,GustSpeedMaxMPH,PrecipitationSumIn
2013-4-1,57.0,50.9,46.0,49.0,36.4,19.0,98,61,30,30.04,29.92,30,16,36,0.04
2013-4-2,55.0,44.3,35.0,32.0,25.2,8.0,72,49,17,30.18,30.04,22,12,27,0.00
2013-4-3,47.0,41.4,35.0,23.0,18.8,13.0,45,40,36,30.30,30.14,24,10,29,0.00
2013-4-4,43.0,33.7,28.0,32.0,25.0,18.0,98,74,36,30.29,29.96,25,11,33,0.01
2013-4-5,50.0,41.0,31.0,42.0,35.4,31.0,99,83,50,30.12,29.87,41,14,49,0.27
2013-4-6,57.0,50.7,46.0,33.0,30.1,27.0,54,45,35,30.29,30.11,32,14,39,0.02
2013-4-7,58.0,50.6,43.0,44.0,39.6,27.0,97,67,38,30.29,30.20,31,23,41,0.00
2013-4-8,63.0,57.5,50.0,52.0,48.9,43.0,98,74,57,30.26,30.18,43,22,48,0.00
2013-4-9,68.0,63.3,59.0,54.0,51.7,49.0,77,66,56,30.33,30.20,38,23,44,0.00
2013-4-10,71.0,65.2,62.0,56.0,53.5,51.0,76,66,54,30.25,30.10,37,25,42,0.00
2013-4-11,65.0,60.3,55.0,61.0,55.6,51.0,99,86,65,30.11,29.84,39,26,49,0.06
2013-4-12,65.0,59.2,50.0,61.0,45.9,33.0,99,66,31,29.92,29.75,47,27,62,0.92
2013-4-13,66.0,53.6,45.0,38.0,34.3,29.0,69,50,29,30.14,29.88,37,17,47,0.02
2013-4-14,59.0,56.1,48.0,47.0,36.3,27.0,93,50,31,30.19,30.08,31,11,42,0.04
2013-4-15,54.0,51.4,48.0,54.0,51.3,47.0,100,99,95,30.31,30.05,18,7,24,0.29
2013-4-16,65.0,58.5,54.0,58.0,55.6,54.0,100,91,70,30.40,30.30,19,10,22,0.01
2013-4-17,66.0,61.6,58.0,60.0,56.0,51.0,94,82,68,30.38,30.26,27,16,30,0.09
2013-4-18,65.0,60.0,56.0,60.0,55.8,49.0,98,86,71,30.27,30.09,30,17,37,0.01
2013-4-19,60.0,55.5,40.0,60.0,54.8,35.0,100,97,72,30.09,29.84,55,36,71,1.23
2013-4-20,52.0,41.2,32.0,35.0,26.3,21.0,84,58,35,30.32,29.95,47,24,61,0.01
2013-4-21,49.0,45.1,40.0,37.0,28.6,22.0,72,53,43,30.46,30.32,24,15,30,0.01
2013-4-22,50.0,42.7,36.0,37.0,33.8,24.0,95,72,44,30.44,30.28,27,14,29,0.00
2013-4-23,58.0,49.1,40.0,45.0,37.5,24.0,87,65,41,30.32,30.21,22,12,26,0.00
2013-4-24,59.0,53.8,49.0,55.0,49.8,45.0,98,86,74,30.22,30.13,40,28,53,0.00
2013-4-25,61.0,50.8,39.0,54.0,33.0,-7.0,98,57,8,30.37,30.15,28,14,37,0.00
2013-4-26,57.0,51.7,46.0,34.0,29.0,21.0,52,42,32,30.50,30.37,26,12,30,0.00
2013-4-27,55.0,50.2,46.0,48.0,42.5,33.0,98,77,43,30.46,30.32,23,8,27,0.42
2013-4-28,50.0,47.4,44.0,50.0,45.3,-99.9,99,96,79,30.33,30.13,25,12,31,1.93
2013-4-29,59.0,53.7,49.0,55.0,52.3,49.0,100,95,82,30.15,30.07,18,12,25,0.58
2013-4-30,60.0,56.2,52.0,57.0,54.4,52.0,99,94,83,30.28,30.10,16,7,21,0.01